PCLO2: Pine Creek Lake
Data processed at Mon 20Mar2023 04:30 GMT
All information presented herein is the property of the government of the United States of America and may be revised or deleted at any time without prior notice.
Dissemination of this information without the expressed written consent of the Public Affairs Office, Tulsa District U.S. Army Corps of Engineers is strictly prohibited.
These data are gathered electronically and, as presented, have not undergone any form of quality control. These data are not guaranteed to be valid or correct.
Go to home page.
Go to station list.
Upstream stations:
Downstream station:Previous Day
Next Day
Current Day
SHEF ID: PCLO2 Pine Creek Lake
STATION TYPE: RESERVOIR
Flood Pool: Bottom = 438.00, Top = 480.00
PRECIP ELEVATION STORAGE TW-ELEV INFLOW RELEASE AIR-TEMP WIND-DIRWIND-SPEED REL-HUMID SOLAR-RAD VOLTAGE BAT-LOAD
in ft ac-ft ft cfs cfs F deg mph % W/m2 volt volt
Ccp-Rev Ccp-Rev Ccp-Rev Ccp-Rev Rev-Regi Rev-Regi Ccp-Rev Ccp-Rev Ccp-Rev Ccp-Rev Ccp-Rev Ccp-Rev Ccp-Rev
(US/Central)
03/19 00:00 0.00 463.96 235088 385.97 2542 1555 38.30 354.00 6.30 52.13 0.00 13.13 12.35
03/19 01:00 0.00 463.96 235088 385.99 2542 1555 35.64 5.00 4.30 49.18 0.00 13.14 12.35
03/19 02:00 0.00 463.97 235196 386.02 2543 1555 36.21 353.90 6.30 50.91 0.00 13.14 12.35
03/19 03:00 0.00 463.98 235304 385.96 1727 1555 35.28 330.90 7.20 52.14 0.00 13.14 12.31
03/19 04:00 0.00 463.98 235304 385.98 1423 1555 34.52 350.20 10.30 54.81 0.00 13.14 12.36
03/19 05:00 0.00 463.98 235304 385.94 2190 1555 33.85 343.10 11.80 52.70 0.00 13.14 12.37
03/19 06:00 0.00 463.95 234980 385.97 1934 1555 33.48 342.60 11.70 52.82 0.00 13.13 12.34
03/19 07:00 0.00 463.99 235412 386.04 1935 1555 32.34 330.40 7.50 56.96 0.00 13.11 12.34
03/19 08:00 0.00 463.99 235412 386.01 2239 1555 31.06 319.20 6.70 56.59 9.50 13.15 12.37
03/19 09:00 0.00 463.99 235412 386.01 2543 1555 32.20 341.30 7.10 51.18 182.80 13.15 12.39
03/19 10:00 0.00 463.99 235412 386.00 1776 1555 32.76 346.40 8.80 45.18 414.80 14.64 12.40
03/19 11:00 0.00 463.99 235412 385.95 1776 1555 34.79 336.10 6.40 40.68 628.10 14.60 12.88
03/19 12:00 0.00 464.00 235520 386.01 1780 1555 37.20 335.50 5.30 34.33 798.10 14.15 12.96
03/19 13:00 0.00 464.00 235520 385.94 1787 1555 39.96 314.90 3.30 29.69 909.50 14.09 12.90
03/19 14:00 0.00 464.00 235520 386.02 2062 1555 42.26 314.50 4.90 26.59 951.60 14.03 12.87
03/19 15:00 0.00 464.00 235520 386.01 1545 1555 44.38 305.80 5.60 24.37 922.40 14.00 12.81
03/19 16:00 0.00 464.01 235631 385.97 1820 1555 46.99 211.50 3.50 23.80 816.80 13.94 12.76
03/19 17:00 0.00 464.00 235520 386.00 1824 1555 47.64 17.60 3.30 22.19 655.50 13.94 12.70
03/19 18:00 0.00 464.01 235631 386.05 1824 1555 48.22 18.70 2.90 19.98 447.00 13.90 12.61
03/19 19:00 0.00 464.01 235631 385.99 1824 1555 48.83 357.20 2.10 17.83 206.90 13.26 12.57
03/19 20:00 0.00 464.01 235631 386.00 1824 1555 45.43 184.60 3.80 31.30 14.50 13.13 12.42
03/19 21:00 0.00 464.02 235742 386.00 1824 1556 40.91 182.60 3.90 45.84 0.00 13.14 12.26
03/19 22:00 0.00 464.01 235631 385.99 1555 1555 36.46 164.90 3.30 64.74 0.00 13.14 12.27
03/19 23:00 0.00 464.02 235742 386.00 2361 1556 33.42 140.60 2.20 71.87 0.00 13.14 12.27